Home   Weather   Gatineau   Past weeks

Flag for Canada Past Weather in Gatineau, Quebec, Canada — Yesterday and Last 2 Weeks

Now
34 °F

Drizzle. Overcast.


Feels Like: 28 °F
Forecast: 29 / 35 °F
Wind: 7 mph from Southeast

Location: Ottawa Int'L. Ont.

Current Time: Jan 20, 2017 at 11:07:52 am

Latest Report: Jan 20, 2017 at 10:00 am


Visibility: 8 mi

Pressure: 29.95 "Hg

Humidity: 93%

Dew Point: 32 °F

Location of GatineauLocation

Past Weather in Gatineau — Graph

°F

Gatineau Temperature Yesterday

Maximum temperature yesterday: 36 °F (at 2:00 pm)
Minimum temperature yesterday: 32 °F (at 12:00 am)
Average temperature yesterday: 33 °F

High & Low Weather Summary for the Past Weeks

 TemperatureHumidityPressure
High43 °F (Jan 11, 11:00 pm)100% (Jan 12, 6:00 am)30.84 "Hg (Jan 12, 6:00 am)
Low-11 °F (Jan 9, 4:00 am)48% (Jan 13, 3:00 pm)29.52 "Hg (Jan 11, 3:35 am)
Average20 °F80%30.16 "Hg
* Reported Jan 5 9:00 am — Jan 20 9:33 am, Gatineau, Weather by CustomWeather, © 2017

Note: Actual official high and low records may vary slightly from our data, if they occured in-between our weather recording intervals... More about our weather records

Advertising

Gatineau Weather History for the Previous 24 Hours

Scroll right to see more
 ConditionsComfort  
Time TempWeatherWind HumidityBarometerVisibility
9:33 am
Fri, Jan 20
34 °FDrizzle. Overcast.7 mph93%29.95 "Hg8 mi
9:00 am34 °FOvercast.6 mph93%29.96 "Hg10 mi
8:00 am34 °FOvercast.7 mph93%29.96 "Hg10 mi
7:00 am32 °FIce fog.5 mph100%29.96 "Hg5 mi
6:00 am32 °FIce fog.3 mph100%29.96 "Hg4 mi
5:32 am32 °FIce fog.5 mph100%29.97 "Hg4 mi
5:00 am32 °FIce fog.5 mph100%29.97 "Hg4 mi
4:29 am32 °FDrizzle. Ice fog.5 mph100%29.98 "Hg1 mi
4:00 am32 °FIce fog.2 mph100%30.00 "Hg2 mi
3:42 am32 °FIce fog.2 mph100%30.01 "Hg4 mi
3:00 am32 °FIce fog.3 mph100%30.01 "Hg6 mi
2:44 am32 °FLight snow. Low clouds.3 mph100%30.01 "Hg4 mi
2:27 am32 °FLight snow. Low clouds.3 mph100%30.01 "Hg6 mi
2:10 am32 °FLow clouds.6 mph100%30.01 "Hg8 mi
2:00 am34 °FOvercast.7 mph93%30.00 "Hg8 mi
1:00 am34 °FOvercast.5 mph93%30.01 "Hg15 mi
12:00 am32 °FOvercast.3 mph100%30.00 "Hg15 mi
11:00 pm
Thu, Jan 19
34 °FMostly cloudy.5 mph93%30.03 "Hg15 mi
10:00 pm34 °FOvercast.3 mph93%30.06 "Hg15 mi
9:00 pm34 °FOvercast.No wind93%30.07 "Hg15 mi
8:00 pm34 °FOvercast.No wind93%30.07 "Hg15 mi
7:00 pm34 °FOvercast.3 mph100%30.06 "Hg15 mi
6:00 pm36 °FLow clouds.3 mph81%30.03 "Hg15 mi
5:00 pm36 °FLow clouds.3 mph93%30.01 "Hg15 mi
4:00 pm36 °FPartly sunny.3 mph93%30.00 "Hg15 mi
3:00 pm36 °FLow clouds.6 mph93%30.01 "Hg15 mi
2:00 pm36 °FLow clouds.6 mph93%30.00 "Hg15 mi
1:00 pm34 °FOvercast.7 mph93%30.01 "Hg15 mi
12:00 pm34 °FOvercast.8 mph93%30.02 "Hg15 mi
11:00 am34 °FOvercast.9 mph93%30.05 "Hg15 mi
Weather by CustomWeather, © 2017

See weather overviewHow to use our weather pages